TimePDT,TemperatureF,Dew PointF,Humidity,Sea Level PressureIn,VisibilityMPH,Wind Direction,Wind SpeedMPH,Gust SpeedMPH,PrecipitationIn,Events,Conditions,WindDirDegrees,DateUTC
12:53 AM,75.0,46.0,36,29.78,10.0,Calm,Calm,-,N/A,,Clear,0,2013-06-16 07:53:00
1:53 AM,73.9,46.0,37,29.78,10.0,Calm,Calm,-,N/A,,Clear,0,2013-06-16 08:53:00
2:53 AM,73.9,46.9,38,29.78,10.0,Calm,Calm,-,N/A,,Clear,0,2013-06-16 09:53:00
3:53 AM,70.0,48.9,47,29.80,10.0,Calm,Calm,-,N/A,,Clear,0,2013-06-16 10:53:00
4:53 AM,70.0,46.9,44,29.81,10.0,Calm,Calm,-,N/A,,Clear,0,2013-06-16 11:53:00
5:53 AM,68.0,48.0,49,29.82,10.0,Calm,Calm,-,N/A,,Clear,0,2013-06-16 12:53:00
6:53 AM,73.0,45.0,37,29.84,10.0,Calm,Calm,-,N/A,,Clear,0,2013-06-16 13:53:00
7:53 AM,78.1,44.1,30,29.86,10.0,Calm,Calm,-,N/A,,Clear,0,2013-06-16 14:53:00
8:53 AM,82.9,39.9,22,29.86,10.0,WSW,3.5,-,N/A,,Clear,250,2013-06-16 15:53:00
9:53 AM,90.0,28.9,11,29.86,10.0,West,4.6,-,N/A,,Clear,260,2013-06-16 16:53:00
10:53 AM,95.0,14.0,5,29.84,10.0,Calm,Calm,-,N/A,,Clear,0,2013-06-16 17:53:00
11:53 AM,97.0,12.0,4,29.83,10.0,Calm,Calm,-,N/A,,Clear,0,2013-06-16 18:53:00
12:53 PM,100.0,18.0,5,29.82,10.0,Calm,Calm,-,N/A,,Clear,0,2013-06-16 19:53:00
1:53 PM,102.0,18.0,5,29.80,10.0,SW,9.2,-,N/A,,Clear,230,2013-06-16 20:53:00
2:53 PM,105.1,26.1,6,29.77,10.0,North,9.2,19.6,N/A,,Clear,10,2013-06-16 21:53:00
3:53 PM,104.0,28.0,7,29.76,10.0,NW,12.7,21.9,N/A,,Clear,310,2013-06-16 22:53:00
4:53 PM,102.9,34.0,9,29.75,10.0,NW,19.6,25.3,N/A,,Clear,320,2013-06-16 23:53:00
5:53 PM,100.9,39.9,12,29.74,10.0,NW,19.6,27.6,N/A,,Clear,320,2013-06-17 00:53:00
6:53 PM,98.1,44.1,16,29.74,10.0,NW,13.8,21.9,N/A,,Clear,320,2013-06-17 01:53:00
7:53 PM,93.9,46.0,19,29.75,10.0,NW,20.7,26.5,N/A,,Clear,310,2013-06-17 02:53:00
8:53 PM,90.0,46.0,22,29.75,10.0,NW,21.9,28.8,N/A,,Clear,320,2013-06-17 03:53:00
9:53 PM,88.0,44.1,22,29.77,10.0,NW,12.7,-,N/A,,Clear,310,2013-06-17 04:53:00
10:53 PM,87.1,45.0,23,29.78,10.0,NW,13.8,20.7,N/A,,Clear,320,2013-06-17 05:53:00
11:53 PM,84.0,43.0,24,29.78,10.0,Calm,Calm,-,N/A,,Clear,0,2013-06-17 06:53:00